Showing default

MEV-1, 44625

Orbit data source: Space-Track

MEV-1, 44625 is a payload satellite owned by Space Logistics (US) in GEO that was launched on Wed, 09 Oct 2019 UTC via a PROTON-M/BRIZ-M launch vehicle from the Tyuratam Missile And Space Complex (TTMTR). Payload-class satellites include a variety of spacecraft equipped with specific instruments for various scientific and technological missions. These include communications satellites like Starlink; space stations such as the ISS; scientific satellites like the Hubble; Earth observation satellites from companies like Planet Labs, Umbra, and HawkEye 360; GPS; miniature CubeSats for education and research; and military/defense satellites.

Not visible in the next 10 days
Identifier
44625, 2019-067B
Orbit
GEO
Last TLE update
1 day ago
Origin
Manufacturer
NGIS SSG
Mission
Operational Commercial Technology
Bus & Motor
GEOSTAR-3, IHI BT-4?
Mass
2,326 kg wet, ~2,000 kg dry
Launch date (UTC)
2019-10-09 (6 years ago)
Launch vehicle
PROTON-M/BRIZ-M
Launch site
Tyuratam Missile And Space Complex (TTMTR)
Object type
Payload
Rocket body
Debris
Shape & HBR
Box + 2 Pan, Unknown HBR
Radar Cross Section
30.713 m², Large (>1 m²)

Expand to show TLE details & history

TLE from 1 day ago
0 MEV-1
1 44625U 19067B   25186.95267437 -.00000131  00000-0  00000-0 0  9995
2 44625   0.6386  84.1334 0001091 288.8682  50.2695  1.00267195 58025
Epoch: 2025-07-05T22:51Z
TLE epoch observation values (Epoch: 2025-07-05T22:51:51.065Z)
Latitude
-0.21068°
Longitude
156.13831°
Altitude
35,784.471 km
Speed
3.075 km/s
True Right ascension
04h 13m 08s
True Declination
0° 12' 38"
Sunlit
Object was in daylight at epoch
Visualization orbit readout
Latitude
0.3131°
Longitude
-156.22966°
Altitude
35,787.993 km
Speed
3.075 km/s
Apparent Right ascension
06h 57m 55s
Apparent Declination
-5° 04' 56"
Sunlit
Object is in daylight
Visualization observer readout
Local Sidereal Time
13:58:42
Azimuth
275.918° WNW
Elevation
-14.901°
Doppler factor
1
Orbital elements
Apogee altitude
35,793.552 km
Perigee altitude
35,784.351 km
Semi-major axis
42,167.089 km
Eccentricity
0.00011
Inclination
0.6386°
RAAN
84.1334°
Arg. of periapsis
288.8682°
True anomaly
Unknown
Mean anomaly
50.2695°
Eccentric anomaly
Unknown
Mean motion
0.25066 °/min
Orbital period
1,436.22 mins
BSTAR
0
Loading historical data...
44625 neighbors
Loading maneuver chart data...
Loading SW <> Apogee altitude chart data...
Loading historical data...
Loading historical data...
Loading historical data...
Loading historical data...
Loading historical data...
Loading historical data...
Loading historical data...
Other satellites on launch #67 in the year 2019 (2019-10-09 UTC)

MEV-1 Visibility

Observer location: undefined°, undefined°

MEV-1 is likely not visible in the next few days
Span
Click to sort rows by Start time (UTC) header in descending order
Start Az.
Max El. time (UTC)
Max El. Az.
Max El.
End time (UTC)
End Az.
|